Regional Weather Roundup
Issued by NWS

Home | Current Version | Previous Version | Text Only | Print | Product List | Glossary On
Versions: 1 2 3 4 5 6 7 8 9 10 11 12 13 14 15 16 17 18 19 20 21 22 23 24 25 26 27 28 29 30 31 32 33 34 35 36 37 38 39 40 41 42 43 44 45 46 47 48 49 50
000
ASUS46 KSTO 241415
RWRCA

NORTHERN AND CENTRAL CA REGIONAL WEATHER ROUNDUP
NATIONAL WEATHER SERVICE SACRAMENTO CA
700 AM PDT WED MAY 24 2017

NOTE: FAIR INDICATES FEW OR NO CLOUDS BELOW 12,000 FEET WITH NO
SIGNIFICANT WEATHER AND/OR OBSTRUCTIONS TO VISIBILITY.

CAZ001-003-241500-
NORTHWEST AREA

CITY           SKY/WX    TMP DP  RH WIND       PRES   REMARKS
CRESCENT CITY  CLOUDY    52  50  93 NW5       29.87F FOG
UKIAH          CLOUDY    52  50  93 SE5       29.85R
$$

CAZ006-505>513-241500-
BAY AREA

CITY           SKY/WX    TMP DP  RH WIND       PRES   REMARKS
SANTA ROSA     CLOUDY    50  49  96 S3        29.85F FOG
SAN RAFAEL     N/A       51  MM  MM MISG
NAPA           CLOUDY    54  50  86 W12       29.86S
CONCORD        PTSUNNY   56  49  77 VRB7      29.85S
OAKLAND CITY   N/A      MM  MM  MM MISG
OAKLAND        CLOUDY    56  52  86 W7        29.88S
SAN FRAN CITY  N/A       51  MM  97 MISG
SAN FRAN ARPT  CLOUDY    53  49  86 W8        29.87S
LIVERMORE      CLOUDY    54  50  86 NW8       29.85S
HAYWARD        CLOUDY    56  48  74 NW7       29.87S
REDWOOD CITY   N/A       57  MM  88 MISG
MOFFETT ARPT   CLOUDY    56  54  93 N5        29.87F
SAN JOSE ARPT  CLOUDY    58  55  90 NW3       29.86F FOG
$$
CAZ034-037-514>518-241500-
CENTRAL COAST

CITY           SKY/WX    TMP DP  RH WIND       PRES   REMARKS
WATSONVILLE    CLOUDY    52  52 100 SW3       29.90R FOG
SALINAS        CLOUDY    53  51  93 NW6       29.90R
MONTEREY       CLOUDY    51  50  96 S5        29.91R
SAN LUIS OBISP CLOUDY    54  51  90 NW8       29.87F FOG
SANTA MARIA    FOG       50  50 100 W5        29.90R VSB 3/4
$$
CAZ015-016-241500-
NORTHERN SACRAMENTO VALLEY

CITY           SKY/WX    TMP DP  RH WIND       PRES   REMARKS
REDDING        SUNNY     67  57  70 N3        29.76S
RED BLUFF      SUNNY     70  59  68 SE3       29.77S
OROVILLE       SUNNY     67  53  61 SE9       29.78S
$$
CAZ016>018-241500-
SOUTHERN SACRAMENTO VALLEY

CITY           SKY/WX    TMP DP  RH WIND       PRES   REMARKS
AUBURN         SUNNY     70  50  49 E8        29.82R
BEALE AFB      SUNNY     62  52  70 S6        29.75S
LINCOLN        FAIR      63  46  55 S10       29.77S
MARYSVILLE     SUNNY     63  51  65 S9        29.77R
PLACERVILLE    FAIR      72  45  37 E3        29.89S
SAC INTL ARPT  PTSUNNY   57  52  83 SE12      29.77R
MATHER AIRPORT SUNNY     57  52  82 S6        29.80R
DOWNTOWN SAC   N/A       59  MM  MM MISG
SAC EXEC ARPT  MOSUNNY   57  52  83 S9        29.79R
VACAVILLE      SUNNY     60  51  72 SW8       29.77S
TRAVIS AFB     MOSUNNY   52  50  93 SW28G36   29.75S
$$
CAZ019>021-241500-
SAN JOAQUIN VALLEY

CITY           SKY/WX    TMP DP  RH WIND       PRES   REMARKS
STOCKTON       PTSUNNY   61  54  77 N6        29.80R
MODESTO        PTSUNNY   65  52  62 NW8       29.79R
MERCED         CLOUDY    66  48  52 NW5       29.77R
LEMOORE        PTSUNNY   72  47  40 W8        29.79R
FRESNO         PTSUNNY   70  57  63 N5        29.78R
HANFORD        MOSUNNY   70  55  59 NW6       29.78S
PORTERVILLE      N/A     70  47  43 SE7       29.80S
BAKERSFIELD    MOSUNNY   80  43  26 NE6       29.79F
$$
CAZ011-012-071-241500-
NORTHERN MOUNTAINS

CITY           SKY/WX    TMP DP  RH WIND       PRES   REMARKS
YREKA          SUNNY     60  47  61 N6        29.92S
MOUNT SHASTA   SUNNY     58  48  69 N3        29.92S
ALTURAS        SUNNY     55  45  68 CALM      29.95F
$$
CAZ011-012-071-241500-
SIERRA NEVADA MTNS

CITY           SKY/WX    TMP DP  RH WIND       PRES   REMARKS
BLUE CANYON    SUNNY     63  41  44 CALM      30.03F
TRUCKEE        SUNNY     37  36  93 CALM      30.07F
TAHOE VLY ARPT SUNNY     43  38  82 S3        30.07F
MAMMOTH LAKES  FAIR      54  35  49 CALM      30.15F
$$




USA.gov is the U.S. government's official web portal to all federal, state and local government web resources and services.